�������l�o���
Date,Time,MP-1(��Sv/h),MP-2(��Sv/h),MP-3(��Sv/h),MP-4(��Sv/h),MP-5(��Sv/h),MP-6(��Sv/h),MP-7(��Sv/h),MP-8(��Sv/h),����,����(m/s),���J
2017/02/14,00:00,1.040,1.750,1.147,2.013,1.399,0.553,1.013,0.943,���k��,6.3,��
2017/02/14,00:10,1.038,1.751,1.146,2.010,1.400,0.553,1.014,0.942,�k��,5.8,��
2017/02/14,00:20,1.039,1.752,1.147,2.014,1.401,0.553,1.014,0.941,�k��,6.7,��
2017/02/14,00:30,1.040,1.753,1.144,2.012,1.402,0.551,1.013,0.942,�k��,6.7,��
2017/02/14,00:40,1.039,1.751,1.145,2.013,1.401,0.551,1.016,0.943,�k��,7.7,��
2017/02/14,00:50,1.037,1.754,1.147,2.011,1.400,0.554,1.016,0.941,�k��,6.9,��
2017/02/14,01:00,1.037,1.751,1.145,2.011,1.402,0.554,1.016,0.943,�k��,7.4,��
2017/02/14,01:10,1.040,1.751,1.145,2.016,1.402,0.552,1.015,0.941,�k��,6.4,��
2017/02/14,01:20,1.036,1.755,1.144,2.011,1.401,0.552,1.013,0.942,�k��,5.3,��
2017/02/14,01:30,1.040,1.753,1.149,2.011,1.398,0.554,1.014,0.941,�k��,3.9,��
2017/02/14,01:40,1.038,1.751,1.146,2.011,1.401,0.553,1.014,0.943,�k��,5.0,��
2017/02/14,01:50,1.039,1.753,1.145,2.008,1.401,0.551,1.016,0.941,�k��,5.5,��
2017/02/14,02:00,1.038,1.749,1.149,2.012,1.401,0.554,1.014,0.942,�k��,5.2,��
2017/02/14,02:10,1.037,1.747,1.146,2.011,1.401,0.552,1.015,0.943,�k��,5.0,��
2017/02/14,02:20,1.036,1.752,1.145,2.015,1.400,0.552,1.014,0.943,���k��,4.9,��
2017/02/14,02:30,1.037,1.752,1.145,2.010,1.400,0.552,1.015,0.942,���k��,7.0,��
2017/02/14,02:40,1.035,1.752,1.147,2.013,1.400,0.553,1.016,0.942,���k��,5.5,��
2017/02/14,02:50,1.037,1.751,1.146,2.012,1.399,0.554,1.014,0.944,�k��,7.1,��
2017/02/14,03:00,1.037,1.751,1.147,2.013,1.402,0.552,1.015,0.942,�k��,7.9,��
2017/02/14,03:10,1.037,1.751,1.144,2.014,1.400,0.552,1.015,0.942,�k��,7.8,��
2017/02/14,03:20,1.036,1.753,1.147,2.014,1.402,0.552,1.016,0.944,�k��,8.4,��
2017/02/14,03:30,1.037,1.750,1.145,2.010,1.401,0.553,1.014,0.941,�k��,6.2,��
2017/02/14,03:40,1.039,1.753,1.144,2.013,1.399,0.553,1.013,0.943,���k��,5.4,��
2017/02/14,03:50,1.036,1.751,1.144,2.012,1.400,0.551,1.014,0.941,�k��,5.3,��
2017/02/14,04:00,1.037,1.749,1.145,2.012,1.398,0.553,1.015,0.941,�k��,4.5,��
2017/02/14,04:10,1.039,1.750,1.146,2.013,1.400,0.552,1.014,0.943,�k��,4.6,��
2017/02/14,04:20,1.036,1.751,1.146,2.009,1.397,0.551,1.013,0.941,�k�k��,4.8,��
2017/02/14,04:30,1.039,1.751,1.147,2.012,1.400,0.552,1.012,0.942,�k��,4.6,��
2017/02/14,04:40,1.038,1.749,1.144,2.013,1.400,0.550,1.013,0.942,�k��,4.9,��
2017/02/14,04:50,1.037,1.750,1.144,2.012,1.399,0.552,1.014,0.942,�k��,5.8,��
2017/02/14,05:00,1.036,1.751,1.146,2.013,1.395,0.552,1.014,0.941,�k��,5.3,��
2017/02/14,05:10,1.037,1.752,1.145,2.012,1.397,0.552,1.012,0.943,�k��,6.7,��
2017/02/14,05:20,1.039,1.750,1.145,2.013,1.395,0.552,1.013,0.941,�k��,6.3,��
2017/02/14,05:30,1.038,1.751,1.145,2.011,1.399,0.553,1.014,0.942,�k��,6.0,��
2017/02/14,05:40,1.037,1.750,1.147,2.014,1.396,0.552,1.012,0.941,�k��,4.9,��
2017/02/14,05:50,1.036,1.748,1.145,2.013,1.400,0.553,1.013,0.938,�k��,5.0,��
2017/02/14,06:00,1.035,1.749,1.144,2.010,1.400,0.552,1.010,0.940,�k��,5.7,��
2017/02/14,06:10,1.036,1.749,1.145,2.012,1.398,0.551,1.012,0.941,�k��,6.4,��
2017/02/14,06:20,1.036,1.750,1.142,2.014,1.398,0.552,1.013,0.941,�k��,7.6,��
2017/02/14,06:30,1.037,1.751,1.143,2.014,1.398,0.552,1.012,0.942,�k��,6.7,��
2017/02/14,06:40,1.036,1.750,1.145,2.010,1.398,0.551,1.014,0.942,�k��,6.2,��
2017/02/14,06:50,1.036,1.751,1.143,2.012,1.397,0.550,1.014,0.941,�k��,5.7,��
2017/02/14,07:00,1.036,1.749,1.142,2.011,1.398,0.552,1.012,0.942,�k��,6.5,��
2017/02/14,07:10,1.035,1.751,1.142,2.010,1.396,0.552,1.013,0.942,���k��,5.2,��
2017/02/14,07:20,1.036,1.750,1.140,2.012,1.397,0.552,1.012,0.943,�k��,4.6,��
2017/02/14,07:30,1.038,1.751,1.144,2.012,1.397,0.553,1.013,0.942,�k�k��,3.6,��
2017/02/14,07:40,1.040,1.751,1.144,2.013,1.398,0.553,1.014,0.941,�k��,3.9,��
2017/02/14,07:50,1.038,1.751,1.145,2.013,1.399,0.551,1.013,0.941,�k��,3.9,��
2017/02/14,08:00,1.038,1.754,1.143,2.013,1.398,0.553,1.014,0.940,�k��,4.4,��
2017/02/14,08:10,1.036,1.753,1.144,2.012,1.397,0.553,1.016,0.943,���k��,3.9,��
2017/02/14,08:20,1.037,1.752,1.143,2.016,1.400,0.553,1.014,0.941,���k��,3.8,��
2017/02/14,08:30,1.037,1.754,1.146,2.015,1.400,0.552,1.014,0.942,���k��,3.6,��
2017/02/14,08:40,1.039,1.757,1.145,2.017,1.397,0.552,1.013,0.942,���k��,3.4,��
2017/02/14,08:50,1.037,1.755,1.145,2.013,1.401,0.554,1.016,0.941,�k��,4.2,��
2017/02/14,09:00,1.039,1.755,1.146,2.016,1.401,0.554,1.016,0.943,���k��,5.7,��
2017/02/14,09:10,1.041,1.756,1.138,2.016,1.399,0.554,1.018,0.944,���k��,5.0,��
2017/02/14,09:20,1.041,1.757,1.131,2.012,1.404,0.555,1.017,0.944,���k��,4.1,��
2017/02/14,09:30,1.043,1.756,1.134,2.016,1.403,0.552,1.017,0.944,���k��,2.6,��
2017/02/14,09:40,1.044,1.755,1.148,2.016,1.404,0.553,1.015,0.942,�k��,5.1,��
2017/02/14,09:50,1.044,1.755,1.143,2.016,1.402,0.554,1.017,0.945,�k��,5.0,��
2017/02/14,10:00,1.043,1.753,1.141,2.021,1.403,0.554,1.016,0.945,�k��,7.1,��
2017/02/14,10:10,1.043,1.755,1.143,2.019,1.402,0.554,1.017,0.944,�k��,5.1,��
2017/02/14,10:20,1.045,1.755,1.149,2.018,1.404,0.554,1.016,0.946,�k��,5.3,��
2017/02/14,10:30,1.042,1.751,1.151,2.017,1.403,0.554,1.018,0.945,�k��,5.5,��
2017/02/14,10:40,1.046,1.756,1.148,2.020,1.406,0.555,1.017,0.947,�k�k��,6.4,��
2017/02/14,10:50,1.041,1.757,1.149,2.017,1.404,0.556,1.015,0.946,�k��,5.8,��
2017/02/14,11:00,1.044,1.759,1.150,2.018,1.407,0.554,1.015,0.944,�k��,4.4,��
2017/02/14,11:10,1.047,1.756,1.148,2.020,1.408,0.555,1.015,0.945,�k��,6.0,��
2017/02/14,11:20,1.047,1.760,1.151,2.020,1.408,0.554,1.016,0.948,���k��,4.3,��
2017/02/14,11:30,1.047,1.757,1.150,2.018,1.407,0.556,1.016,0.943,�k��,4.8,��
2017/02/14,11:40,1.047,1.757,1.147,2.020,1.410,0.555,1.016,0.947,�k��,3.4,��
2017/02/14,11:50,1.049,1.757,1.151,2.017,1.409,0.554,1.014,0.946,�k��,4.6,��
2017/02/14,12:00,1.048,1.757,1.150,2.019,1.410,0.555,1.016,0.944,�k��,5.2,��
2017/02/14,12:10,1.048,1.753,1.153,2.021,1.406,0.555,1.015,0.947,�k��,6.4,��
2017/02/14,12:20,1.049,1.756,1.152,2.021,1.408,0.556,1.014,0.948,���k��,4.2,��
2017/02/14,12:30,1.048,1.757,1.152,2.020,1.409,0.556,1.015,0.945,�k��,5.2,��
2017/02/14,12:40,1.048,1.757,1.153,2.020,1.411,0.554,1.016,0.945,�k��,4.7,��
2017/02/14,12:50,1.048,1.759,1.150,2.021,1.412,0.555,1.015,0.947,�k��,5.8,��
2017/02/14,13:00,1.049,1.758,1.152,2.021,1.410,0.555,1.015,0.946,�k��,5.1,��
2017/02/14,13:10,1.048,1.759,1.154,2.021,1.409,0.555,1.015,0.945,�k�k��,2.3,��
2017/02/14,13:20,1.049,1.758,1.152,2.023,1.410,0.556,1.018,0.945,�k�k��,4.3,��
2017/02/14,13:30,1.047,1.758,1.154,2.023,1.413,0.556,1.017,0.945,�k��,3.2,��
2017/02/14,13:40,1.050,1.761,1.153,2.022,1.414,0.555,1.015,0.947,�k��,2.6,��
2017/02/14,13:50,1.049,1.761,1.156,2.024,1.413,0.557,1.016,0.946,�k��,5.4,��
2017/02/14,14:00,1.053,1.763,1.154,2.026,1.414,0.556,1.017,0.946,�k��,8.2,��
2017/02/14,14:10,1.053,1.761,1.144,2.025,1.412,0.558,1.017,0.947,�k��,8.0,��
2017/02/14,14:20,1.053,1.764,1.151,2.024,1.409,0.557,1.017,0.947,���k��,6.3,��
2017/02/14,14:30,1.052,1.765,1.158,2.026,1.410,0.557,1.017,0.945,���k��,8.4,��
2017/02/14,14:40,1.053,1.762,1.157,2.025,1.409,0.557,1.015,0.942,���k��,9.6,��
2017/02/14,14:50,1.049,1.764,1.157,2.027,1.409,0.556,1.017,0.944,���k��,6.9,��
2017/02/14,15:00,1.053,1.761,1.160,2.025,1.411,0.555,1.017,0.943,���k��,5.9,��
2017/02/14,15:10,1.052,1.760,1.158,2.026,1.413,0.556,1.018,0.943,��,4.1,��
2017/02/14,15:20,1.050,1.762,1.158,2.028,1.409,0.557,1.018,0.947,���k��,4.0,��
2017/02/14,15:30,1.050,1.764,1.152,2.025,1.409,0.556,1.018,0.945,���k��,6.3,��
2017/02/14,15:40,1.051,1.764,1.159,2.024,1.413,0.556,1.019,0.947,��,6.5,��
2017/02/14,15:50,1.052,1.763,1.156,2.026,1.409,0.557,1.022,0.946,���k��,5.7,��
2017/02/14,16:00,1.051,1.764,1.158,2.026,1.411,0.556,1.020,0.946,���k��,6.6,��
2017/02/14,16:10,1.051,1.766,1.159,2.028,1.414,0.557,1.019,0.946,�k��,6.1,��
2017/02/14,16:20,1.050,1.764,1.160,2.025,1.411,0.555,1.019,0.946,���k��,8.5,��
2017/02/14,16:30,1.050,1.766,1.158,2.025,1.413,0.557,1.020,0.947,�k��,11.1,��
2017/02/14,16:40,1.049,1.762,1.157,2.026,1.412,0.557,1.018,0.945,�k��,9.0,��
2017/02/14,16:50,1.048,1.768,1.158,2.024,1.413,0.555,1.018,0.945,���k��,8.1,��
2017/02/14,17:00,1.050,1.765,1.158,2.023,1.412,0.555,1.019,0.946,���k��,7.0,��
2017/02/14,17:10,1.049,1.762,1.157,2.026,1.410,0.556,1.018,0.945,���k��,7.8,��
2017/02/14,17:20,1.048,1.764,1.155,2.026,1.411,0.555,1.018,0.945,���k��,6.9,��
2017/02/14,17:30,1.049,1.764,1.156,2.027,1.413,0.555,1.019,0.945,���k��,9.0,��
2017/02/14,17:40,1.049,1.765,1.156,2.024,1.413,0.556,1.018,0.946,���k��,7.6,��
2017/02/14,17:50,1.049,1.764,1.153,2.023,1.411,0.555,1.019,0.943,���k��,6.4,��
2017/02/14,18:00,1.047,1.763,1.156,2.022,1.412,0.554,1.018,0.946,���k��,7.0,��
2017/02/14,18:10,1.049,1.764,1.155,2.025,1.411,0.554,1.016,0.947,���k��,6.0,��
2017/02/14,18:20,1.046,1.766,1.156,2.024,1.410,0.554,1.017,0.945,���k��,6.5,��
2017/02/14,18:30,1.047,1.762,1.156,2.024,1.409,0.555,1.018,0.945,���k��,6.1,��
2017/02/14,18:40,1.047,1.764,1.154,2.022,1.412,0.554,1.017,0.944,��,4.7,��
2017/02/14,18:50,1.047,1.762,1.154,2.021,1.412,0.554,1.017,0.945,���k��,5.7,��
2017/02/14,19:00,1.047,1.761,1.154,2.019,1.413,0.556,1.018,0.942,���k��,5.3,��
2017/02/14,19:10,1.047,1.761,1.155,2.022,1.411,0.556,1.018,0.945,���k��,6.2,��
2017/02/14,19:20,1.047,1.762,1.153,2.023,1.409,0.555,1.016,0.943,���k��,5.8,��
2017/02/14,19:30,1.048,1.761,1.152,2.022,1.411,0.554,1.016,0.944,�k��,6.2,��
2017/02/14,19:40,1.045,1.761,1.154,2.024,1.411,0.553,1.016,0.943,���k��,6.4,��
2017/02/14,19:50,1.047,1.761,1.153,2.021,1.411,0.555,1.017,0.944,�k��,6.0,��
2017/02/14,20:00,1.043,1.762,1.154,2.024,1.410,0.554,1.016,0.944,�k��,6.7,��
2017/02/14,20:10,1.043,1.761,1.154,2.024,1.408,0.553,1.017,0.943,�k��,6.5,��
2017/02/14,20:20,1.045,1.760,1.155,2.022,1.410,0.553,1.017,0.943,�k��,7.1,��
2017/02/14,20:30,1.047,1.761,1.153,2.023,1.410,0.553,1.018,0.942,�k��,5.6,��
2017/02/14,20:40,1.045,1.761,1.153,2.025,1.408,0.553,1.015,0.943,�k��,4.9,��
2017/02/14,20:50,1.042,1.761,1.152,2.021,1.409,0.553,1.017,0.941,���k��,5.7,��
2017/02/14,21:00,1.045,1.760,1.152,2.019,1.410,0.553,1.016,0.942,���k��,5.9,��
2017/02/14,21:10,1.044,1.763,1.151,2.019,1.408,0.554,1.014,0.944,���k��,4.7,��
2017/02/14,21:20,1.042,1.761,1.153,2.019,1.408,0.555,1.015,0.944,���k��,5.0,��
2017/02/14,21:30,1.044,1.761,1.153,2.020,1.409,0.551,1.017,0.944,���k��,4.0,��
2017/02/14,21:40,1.047,1.758,1.151,2.019,1.407,0.551,1.014,0.943,���k��,4.7,��
2017/02/14,21:50,1.044,1.760,1.150,2.020,1.410,0.554,1.016,0.944,��,5.2,��
2017/02/14,22:00,1.043,1.762,1.152,2.019,1.410,0.552,1.015,0.942,��,4.3,��
2017/02/14,22:10,1.046,1.760,1.151,2.015,1.408,0.552,1.017,0.941,��,3.8,��
2017/02/14,22:20,1.042,1.761,1.152,2.018,1.407,0.553,1.015,0.945,��,4.8,��
2017/02/14,22:30,1.043,1.758,1.149,2.020,1.408,0.553,1.015,0.942,��,5.1,��
2017/02/14,22:40,1.044,1.762,1.152,2.019,1.409,0.554,1.015,0.942,���k��,5.9,��
2017/02/14,22:50,1.044,1.757,1.151,2.016,1.408,0.553,1.015,0.941,���k��,6.0,��
2017/02/14,23:00,1.044,1.760,1.152,2.018,1.406,0.554,1.014,0.944,���k��,4.5,��
2017/02/14,23:10,1.045,1.761,1.150,2.018,1.408,0.552,1.015,0.943,���k��,4.9,��
2017/02/14,23:20,1.043,1.760,1.152,2.020,1.408,0.552,1.014,0.944,���k��,5.0,��
2017/02/14,23:30,1.042,1.757,1.152,2.017,1.406,0.553,1.012,0.943,���k��,4.1,��
2017/02/14,23:40,1.043,1.759,1.150,2.019,1.406,0.554,1.013,0.943,���k��,4.6,��
2017/02/14,23:50,1.043,1.760,1.148,2.018,1.406,0.554,1.014,0.943,���k��,4.0,��
